Change the Weather History Date:

Saturday, May 11, 2013

  Actual Average Record
Temperature  
Mean Temperature 76 °F -  
Max Temperature 86 °F 81 °F 93 °F (2000)
Min Temperature 66 °F 60 °F 48 °F (1997)
Cooling Degree Days 11    
Growing Degree Days 26 (Base 50)    
Moisture  
Dew Point 65 °F    
Average Humidity 68    
Maximum Humidity 90    
Minimum Humidity 47    
Precipitation  
Precipitation 0.00 in - - ()
Sea Level Pressure  
Sea Level Pressure 29.95 in    
Wind  
Wind Speed 7 mph (SW)    
Max Wind Speed 15 mph    
Max Gust Speed 22 mph    
Visibility 10 miles    
Events Rain    
Averages and records for this station are not official NWS values.
T = Trace of Precipitation, MM = Missing Value Source: NWS Daily Summary

Daily Weather History Graph

Daily Weather History Graph

Search for Another Location

Airport or City:

Trip Planner

Search our weather history database for the weather conditions in past years. The results will help you decide how hot, cold, wet, or windy it might be!

Date:

Astronomy

May. 11, 2013 Rise Set
Actual Time 6:29 AM EDT 8:12 PM EDT
Civil Twilight 6:03 AM EDT 8:39 PM EDT
Nautical Twilight 5:31 AM EDT 9:11 PM EDT
Astronomical Twilight 4:57 AM EDT 9:45 PM EDT
Moon 7:38 AM EDT (5/11) 9:49 PM EDT (5/11)
Length of Visible Light 14h 35m
Length of Day
13h 42m
Waxing Crescent, 3% of the Moon is Illuminated
May 11
Waxing Crescent
May 18
First Quarter
May 25
Full
May 31
Last Quarter
Jun 8
New

Hourly Weather History & Observations

Time (EDT) Temp. Heat Index Dew Point Humidity Pressure Visibility Wind Dir Wind Speed Gust Speed Precip Events Conditions
12:58 AM 72.1 °F - 67.8 °F 86% 30.02 in 10.0 mi SSE 3.5 mph - N/A   Clear
1:58 AM 71.8 °F - 67.8 °F 87% 30.00 in 10.0 mi SSE 4.6 mph - N/A   Clear
2:58 AM 72.1 °F - 68.5 °F 88% 30.00 in 10.0 mi Variable 4.6 mph - N/A   Mostly Cloudy
3:58 AM 71.1 °F - 68.0 °F 90% 29.99 in 10.0 mi SSW 4.6 mph - N/A   Clear
4:58 AM 68.7 °F - 65.5 °F 89% 29.99 in 10.0 mi WSW 4.6 mph - N/A   Clear
5:58 AM 67.5 °F - 64.2 °F 89% 29.98 in 10.0 mi WSW 3.5 mph - N/A   Clear
6:58 AM 66.6 °F - 63.7 °F 90% 29.99 in 10.0 mi SW 3.5 mph - N/A   Clear
7:58 AM 68.4 °F - 63.1 °F 83% 29.98 in 10.0 mi SW 4.6 mph - N/A   Clear
8:58 AM 71.8 °F - 63.7 °F 76% 29.98 in 10.0 mi SSW 4.6 mph - N/A   Partly Cloudy
9:58 AM 75.0 °F - 62.8 °F 66% 30.00 in 10.0 mi WSW 9.2 mph - N/A   Scattered Clouds
10:58 AM 75.2 °F - 61.5 °F 62% 30.00 in 10.0 mi WSW 5.8 mph - N/A   Scattered Clouds
11:58 AM 80.1 °F 81.5 °F 63.3 °F 56% 29.99 in 10.0 mi West 11.5 mph - N/A   Clear
12:58 PM 82.9 °F 84.0 °F 63.3 °F 51% 29.97 in 10.0 mi SW 10.4 mph 19.6 mph N/A   Scattered Clouds
1:28 PM 84.2 °F 85.0 °F 62.6 °F 48% 29.95 in 10.0 mi SW 12.7 mph - N/A   Scattered Clouds
1:33 PM 84.2 °F 85.0 °F 62.6 °F 48% 29.94 in 10.0 mi West 13.8 mph 20.7 mph N/A   Scattered Clouds
1:34 PM 84.2 °F 85.0 °F 62.6 °F 48% 29.94 in 10.0 mi West 13.8 mph 20.7 mph N/A   Scattered Clouds
1:58 PM 84.4 °F 85.2 °F 62.6 °F 48% 29.94 in 10.0 mi WSW 9.2 mph 19.6 mph N/A   Scattered Clouds
2:58 PM 86.0 °F 87.1 °F 63.5 °F 47% 29.93 in 10.0 mi WSW 15.0 mph 21.9 mph N/A   Scattered Clouds
3:55 PM 84.2 °F 85.0 °F 62.6 °F 48% 29.91 in 10.0 mi West 13.8 mph 20.7 mph N/A   Scattered Clouds
3:58 PM 85.1 °F 85.9 °F 63.0 °F 47% 29.92 in 10.0 mi West 11.5 mph 18.4 mph N/A   Scattered Clouds
4:58 PM 84.0 °F 84.9 °F 63.1 °F 49% 29.92 in 10.0 mi WSW 10.4 mph - N/A   Scattered Clouds
5:58 PM 82.9 °F 84.4 °F 64.0 °F 53% 29.90 in 10.0 mi WSW 10.4 mph - N/A   Clear
6:58 PM 81.1 °F 82.8 °F 64.6 °F 57% 29.90 in 10.0 mi WSW 6.9 mph - N/A   Clear
7:58 PM 79.7 °F - 64.8 °F 60% 29.91 in 10.0 mi SW 5.8 mph - N/A   Overcast
8:56 PM 77.0 °F - 66.2 °F 69% 29.92 in 10.0 mi South 9.2 mph - N/A Rain Light Rain
8:58 PM 77.0 °F - 66.2 °F 69% 29.93 in 10.0 mi South 8.1 mph - N/A Rain Light Rain
9:24 PM 73.4 °F - 68.0 °F 83% 29.92 in 10.0 mi SW 6.9 mph - N/A   Scattered Clouds
9:58 PM 72.1 °F - 67.6 °F 86% 29.93 in 10.0 mi SSW 3.5 mph - 0.00 in   Mostly Cloudy
10:58 PM 72.1 °F - 66.7 °F 83% 29.91 in 10.0 mi South 4.6 mph - N/A   Partly Cloudy
11:58 PM 71.1 °F - 65.5 °F 82% 29.93 in 10.0 mi SW 8.1 mph - N/A   Clear